Regional Weather Roundup
Issued by NWS

Home | Current Version | Previous Version | Graphics & Text | Print | Product List | Glossary On
Versions: 1 2 3 4 5 6 7 8 9 10 11 12 13 14 15 16 17 18 19 20 21 22 23 24 25 26 27 28 29 30 31 32 33 34 35 36 37 38 39 40 41 42 43 44 45 46 47 48 49 50
000
ASUS43 KIND 211809
RWRIN

WEATHER ROUNDUP FOR INDIANA
NATIONAL WEATHER SERVICE INDIANAPOLIS IN
100 PM EST TUE FEB 21 2017

NOTE: "FAIR" INDICATES FEW OR NO CLOUDS BELOW 12,000 FEET WITH NO
SIGNIFICANT WEATHER AND/OR OBSTRUCTIONS TO VISIBILITY.

* - STATION DOES NOT REPORT WEATHER SUCH AS PRECIPITATION OR FOG.

+ - STATION NOT QUALITY CONTROLLED BY THE NATIONAL WEATHER SERVICE.
    USE DATA WITH CAUTION...ESPECIALLY DEWPOINT AND RELATIVE
    HUMIDITY OBSERVATIONS.

INZ001>003-010>013-019-020-211900-
NORTHWEST INDIANA

CITY           SKY/WX    TMP DP  RH WIND       PRES   REMARKS
GARY /AIRPORT/ PTSUNNY   64  54  68 S8        29.95F
KNOX *+        CLOUDY    55  37  50 SW5       29.96F
LA PORTE +     CLOUDY    55  53  96 S3        29.96F FOG
6HR MIN TEMP:  50; 6HR MAX TEMP:  55; 6HR PCP:  0.08;

MICHIGAN CITY+ CLOUDY    61  54  77 SW8       29.95F
MONTICELLO +   CLOUDY    59  49  70 SW3       29.95F
6HR MIN TEMP:  51; 6HR MAX TEMP:  59;

RENSSELAER +   CLOUDY    59  55  88 S5        29.95F
VALPARAISO     CLOUDY    57  56  96 S6        29.95F FOG
6HR MIN TEMP:  53; 6HR MAX TEMP:  57; 6HR PCP:  0.04;


$$

LMZ046-743>745-211900-
SOUTHERN LAKE MICHIGAN

STATION/POSITION TIME  TEMP    WIND        PRES    WAVE
                       AIR SEA DIR/SP/G            HT
                 (UTC) (F)     (DEG/KT/KT) (MB)    (FT)
BURNS HARBOR     1740   59     190/ 10/ 12 1014.6F
MICHIGAN CITY    1740   50     220/  6/  8   N/A

$$

INZ004-005-014>016-021>024-211900-
NORTH CENTRAL INDIANA

CITY           SKY/WX    TMP DP  RH WIND       PRES   REMARKS
ELKHART        MOSUNNY   55  54  94 SW5       29.96F FOG
GOSHEN           N/A     59  50  72 SW7       29.95F
6HR MIN TEMP:  52; 6HR MAX TEMP:  59; 6HR PCP:  0.01;

LOGANSPORT +   PTSUNNY   59  50  72 W3        29.96F
PERU/GRISSOM   LGT RAIN  58  55  87 W9        29.93F
6HR MIN TEMP:  53; 6HR MAX TEMP:  58; 6HR PCP: TRACE;

ROCHESTER +    CLOUDY    61  50  67 SW7       29.96F
SOUTH BEND     CLOUDY   N/A N/A N/A S8        29.95F HAZE
6HR MIN TEMP:  51; 6HR MAX TEMP:  54;

WARSAW +       PTSUNNY   59  50  72 S5        29.95F

$$

INZ006>009-017-018-025>027-211900-
NORTHEAST INDIANA

CITY           SKY/WX    TMP DP  RH WIND       PRES   REMARKS
ANGOLA *+      PTSUNNY   57  54  88 SW3       29.94F
AUBURN +       DRIZZLE   55  48  76 CALM      29.96F
FORT WAYNE     LGT RAIN  58  50  75 S12       29.98F
6HR MIN TEMP:  48; 6HR MAX TEMP:  58; 6HR PCP: TRACE;

HUNTINGTON +   DRIZZLE   57  48  73 S3        29.95F
6HR MIN TEMP:  50; 6HR MAX TEMP:  57;

KENDALLVILLE + CLOUDY    58  51  75 SW6       29.97S

$$

INZ028-029-035-036-043>045-051>053-211900-
WEST CENTRAL INDIANA

CITY           SKY/WX    TMP DP  RH WIND       PRES   REMARKS
GREENCASTLE +  CLOUDY    61  46  59 SW5       29.99F
LAFAYETTE      CLOUDY    59  50  72 W5        29.94F
6HR MIN TEMP:  51; 6HR MAX TEMP:  59; 6HR PCP: TRACE;

TERRE HAUTE    CLOUDY    61  47  59 CALM      29.96F
6HR MIN TEMP:  50; 6HR MAX TEMP:  61; 6HR PCP: TRACE;


$$

INZ030>032-037>040-046>048-054>057-064-065-211900-
CENTRAL INDIANA

CITY           SKY/WX    TMP DP  RH WIND       PRES   REMARKS
CP ATTERBURY + PTSUNNY   63  46  55 SW6       29.99F
COLUMBUS       CLOUDY    59  50  72 S5        29.99F
FRANKFORT +    LGT RAIN  61  53  74 S7G16     29.98S
6HR MIN TEMP:  54; 6HR MAX TEMP:  61;

GREENWOOD *+   CLOUDY    62  49  62 CALM      29.99F
6HR MIN TEMP:  52; 6HR MAX TEMP:  62;

INDIANAPOLIS   CLOUDY    63  47  55 S9        29.98F
6HR MIN TEMP:  50; 6HR MAX TEMP:  63; 6HR PCP: TRACE;

-EAGLE CREEK   MOSUNNY   63  47  55 S7        29.97F
6HR MIN TEMP:  52; 6HR MAX TEMP:  63;

KOKOMO +       CLOUDY    58  51  78 S9        29.98F
6HR MIN TEMP:  51; 6HR MAX TEMP:  58; 6HR PCP: TRACE;

MARION +       MOSUNNY   59  47  63 SW7       29.99R
MT COMFORT *+  CLOUDY    61  46  59 SW9       30.00S
SHELBYVILLE    CLOUDY    62  46  55 SW8       29.98F
6HR MIN TEMP:  51; 6HR MAX TEMP:  62;

ZIONSVILLE +   PTSUNNY   61  47  61 SW7       29.98F
6HR MIN TEMP:  49; 6HR MAX TEMP:  61;


$$

INZ033-034-041-042-049-050-058-059-211900-
EAST CENTRAL INDIANA

CITY           SKY/WX    TMP DP  RH WIND       PRES   REMARKS
MUNCIE         CLOUDY    63  46  54 W6        29.99S
6HR MIN TEMP:  54; 6HR MAX TEMP:  63;


$$

INZ060-061-067>069-081>083-085>088-211900-
SOUTHWEST INDIANA

CITY           SKY/WX    TMP DP  RH WIND       PRES   REMARKS
EVANSVILLE     LGT RAIN  63  50  62 NE3       29.95F
6HR MIN TEMP:  52; 6HR MAX TEMP:  63; 6HR PCP: TRACE;

HUNTINGBURG *+ CLOUDY    64  51  62 CALM      29.96F
6HR MIN TEMP:  55; 6HR MAX TEMP:  64;

WASHINGTON +   CLOUDY    62  48  59 S7        29.96F
6HR MIN TEMP:  51; 6HR MAX TEMP:  62;


$$

INZ062-063-066-070>080-084-089>092-211900-
SOUTH CENTRAL AND SOUTHEAST INDIANA

CITY           SKY/WX    TMP DP  RH WIND       PRES   REMARKS
BEDFORD +      CLOUDY   N/A N/A N/A S3        29.98F
BLOOMINGTON    PTSUNNY   63  47  55 S7        29.98F
6HR MIN TEMP:  50; 6HR MAX TEMP:  63;

MADISON *+     PTSUNNY   64  46  52 S6        30.01F
NORTH VERNON + CLOUDY    63  46  55 S7        30.00F
SEYMOUR +      CLOUDY    64  48  55 CALM      29.99F

$$




USA.gov is the U.S. government's official web portal to all federal, state and local government web resources and services.